TimeCDT,TemperatureF,Dew PointF,Humidity,Sea Level PressureIn,VisibilityMPH,Wind Direction,Wind SpeedMPH,Gust SpeedMPH,PrecipitationIn,Events,Conditions,WindDirDegrees,DateUTC
12:15 AM,27.3,22.1,81,30.15,10.0,Calm,Calm,-,N/A,,Clear,0,2012-10-10 05:15:00
12:35 AM,25.0,20.5,83,30.14,10.0,Calm,Calm,-,N/A,,Clear,0,2012-10-10 05:35:00
12:55 AM,25.7,21.6,84,30.14,10.0,Calm,Calm,-,N/A,,Clear,0,2012-10-10 05:55:00
1:15 AM,25.2,21.2,85,30.14,10.0,SSW,3.5,-,N/A,,Clear,210,2012-10-10 06:15:00
1:35 AM,25.7,21.6,84,30.15,10.0,Calm,Calm,-,N/A,,Clear,0,2012-10-10 06:35:00
1:55 AM,25.2,21.4,86,30.15,10.0,Calm,Calm,-,N/A,,Clear,0,2012-10-10 06:55:00
2:15 AM,25.5,22.1,87,30.15,10.0,Calm,Calm,-,N/A,,Clear,0,2012-10-10 07:15:00
2:35 AM,26.6,22.8,86,30.15,10.0,SSW,4.6,-,N/A,,Clear,210,2012-10-10 07:35:00
2:55 AM,31.5,25.0,77,30.15,10.0,WSW,5.8,-,N/A,,Clear,240,2012-10-10 07:55:00
3:15 AM,28.0,23.9,84,30.15,10.0,Calm,Calm,-,N/A,,Clear,0,2012-10-10 08:15:00
3:35 AM,28.0,23.5,83,30.15,10.0,Calm,Calm,-,N/A,,Clear,0,2012-10-10 08:35:00
3:55 AM,28.2,23.9,84,30.15,10.0,Calm,Calm,-,N/A,,Clear,0,2012-10-10 08:55:00
4:15 AM,28.8,23.0,79,30.16,10.0,Calm,Calm,-,N/A,,Clear,0,2012-10-10 09:15:00
4:35 AM,27.1,23.0,84,30.16,10.0,Calm,Calm,-,N/A,,Clear,0,2012-10-10 09:35:00
4:55 AM,27.3,22.8,83,30.16,10.0,Calm,Calm,-,N/A,,Clear,0,2012-10-10 09:55:00
5:15 AM,27.9,22.8,81,30.17,10.0,Calm,Calm,-,N/A,,Clear,0,2012-10-10 10:15:00
5:35 AM,27.3,22.8,83,30.17,10.0,Calm,Calm,-,N/A,,Clear,0,2012-10-10 10:35:00
5:55 AM,27.3,22.5,82,30.17,10.0,South,3.5,-,N/A,,Clear,180,2012-10-10 10:55:00
6:15 AM,26.1,21.6,83,30.17,10.0,SW,3.5,-,N/A,,Clear,220,2012-10-10 11:15:00
6:35 AM,25.9,21.9,85,30.18,10.0,Calm,Calm,-,N/A,,Clear,0,2012-10-10 11:35:00
6:55 AM,24.6,20.7,85,30.19,10.0,SSW,3.5,-,N/A,,Clear,200,2012-10-10 11:55:00
7:15 AM,23.2,19.9,87,30.19,10.0,Calm,Calm,-,N/A,,Clear,0,2012-10-10 12:15:00
7:35 AM,23.5,20.1,87,30.19,10.0,SW,3.5,-,N/A,,Clear,220,2012-10-10 12:35:00
7:55 AM,24.8,21.4,87,30.19,10.0,South,4.6,-,N/A,,Clear,190,2012-10-10 12:55:00
8:35 AM,29.7,23.4,77,30.19,10.0,Calm,Calm,-,N/A,,Clear,0,2012-10-10 13:35:00
8:55 AM,32.0,24.4,74,30.19,10.0,SSW,3.5,-,N/A,,Clear,200,2012-10-10 13:55:00
9:15 AM,35.1,25.7,69,30.20,10.0,SSW,5.8,-,N/A,,Clear,210,2012-10-10 14:15:00
9:35 AM,38.7,26.8,62,30.20,10.0,SSW,4.6,-,N/A,,Clear,210,2012-10-10 14:35:00
9:55 AM,43.3,27.0,52,30.19,7.0,SW,4.6,-,N/A,,Clear,220,2012-10-10 14:55:00
10:15 AM,47.7,26.2,43,30.19,10.0,SW,6.9,-,N/A,,Clear,230,2012-10-10 15:15:00
10:35 AM,49.6,25.0,38,30.19,10.0,SW,9.2,-,N/A,,Clear,230,2012-10-10 15:35:00
10:55 AM,50.5,25.0,37,30.19,10.0,SW,8.1,-,N/A,,Clear,230,2012-10-10 15:55:00
11:15 AM,52.0,25.2,35,30.19,10.0,SW,5.8,-,N/A,,Clear,230,2012-10-10 16:15:00
11:55 AM,53.8,27.5,36,30.18,10.0,SW,6.9,-,N/A,,Clear,220,2012-10-10 16:55:00
12:15 PM,54.9,26.8,34,30.17,10.0,South,5.8,-,N/A,,Clear,190,2012-10-10 17:15:00
12:35 PM,56.3,27.0,32,30.16,10.0,SSW,9.2,-,N/A,,Clear,200,2012-10-10 17:35:00
12:55 PM,57.2,27.5,32,30.15,10.0,WSW,10.4,17.3,N/A,,Clear,240,2012-10-10 17:55:00
1:15 PM,58.3,28.6,32,30.14,10.0,WSW,11.5,18.4,N/A,,Clear,240,2012-10-10 18:15:00
1:35 PM,59.2,29.1,32,30.12,10.0,SW,12.7,19.6,N/A,,Clear,230,2012-10-10 18:35:00
1:55 PM,59.7,29.3,32,30.10,10.0,SSW,17.3,-,N/A,,Clear,200,2012-10-10 18:55:00
2:15 PM,61.2,29.8,31,30.09,10.0,SW,16.1,21.9,N/A,,Clear,220,2012-10-10 19:15:00
2:35 PM,61.3,29.8,30,30.08,10.0,SSW,13.8,-,N/A,,Clear,200,2012-10-10 19:35:00
2:55 PM,62.4,30.4,30,30.07,10.0,SSW,13.8,-,N/A,,Clear,210,2012-10-10 19:55:00
3:15 PM,63.3,30.7,29,30.06,10.0,SSW,15.0,18.4,N/A,,Clear,200,2012-10-10 20:15:00
3:35 PM,63.5,30.7,29,30.05,10.0,SW,18.4,-,N/A,,Clear,220,2012-10-10 20:35:00
3:55 PM,64.2,30.7,29,30.03,10.0,SW,12.7,19.6,N/A,,Clear,220,2012-10-10 20:55:00
4:15 PM,64.6,30.9,28,30.03,10.0,SW,16.1,23.0,N/A,,Clear,220,2012-10-10 21:15:00
4:35 PM,64.9,30.7,28,30.02,10.0,SW,20.7,25.3,N/A,,Clear,230,2012-10-10 21:35:00
4:55 PM,64.8,30.9,28,30.01,10.0,SW,18.4,23.0,N/A,,Clear,220,2012-10-10 21:55:00
5:15 PM,65.1,31.1,28,30.00,10.0,SW,15.0,20.7,N/A,,Clear,220,2012-10-10 22:15:00
5:35 PM,64.8,31.1,28,30.00,10.0,SSW,13.8,20.7,N/A,,Clear,210,2012-10-10 22:35:00
5:55 PM,64.4,31.5,29,29.98,10.0,SSW,18.4,23.0,N/A,,Clear,200,2012-10-10 22:55:00
6:15 PM,63.7,31.5,30,29.98,10.0,SSW,15.0,-,N/A,,Clear,200,2012-10-10 23:15:00
6:35 PM,62.2,31.3,31,29.98,10.0,SSW,13.8,-,N/A,,Clear,200,2012-10-10 23:35:00
6:55 PM,59.9,31.1,34,29.98,10.0,South,10.4,-,N/A,,Clear,190,2012-10-10 23:55:00
7:15 PM,57.6,30.6,36,29.98,10.0,South,11.5,-,N/A,,Clear,190,2012-10-11 00:15:00
7:35 PM,54.9,30.0,39,29.98,10.0,South,10.4,-,N/A,,Clear,180,2012-10-11 00:35:00
7:55 PM,54.5,30.0,39,29.98,10.0,South,11.5,-,N/A,,Clear,180,2012-10-11 00:55:00
8:15 PM,53.2,29.8,41,29.98,10.0,South,10.4,-,N/A,,Clear,180,2012-10-11 01:15:00
8:35 PM,52.7,29.7,41,29.98,10.0,South,10.4,-,N/A,,Clear,180,2012-10-11 01:35:00
8:55 PM,51.4,29.3,43,29.98,10.0,South,8.1,-,N/A,,Clear,180,2012-10-11 01:55:00
9:15 PM,50.9,29.3,43,29.98,10.0,South,9.2,-,N/A,,Clear,180,2012-10-11 02:15:00
9:35 PM,50.5,29.1,44,29.98,10.0,South,9.2,-,N/A,,Clear,190,2012-10-11 02:35:00
9:55 PM,50.9,28.9,43,29.98,10.0,South,11.5,-,N/A,,Clear,180,2012-10-11 02:55:00
10:15 PM,50.2,28.8,44,29.98,10.0,South,9.2,-,N/A,,Clear,180,2012-10-11 03:15:00
10:35 PM,50.0,28.8,44,29.98,10.0,South,10.4,-,N/A,,Clear,190,2012-10-11 03:35:00
10:55 PM,49.1,28.6,45,29.98,10.0,SSW,10.4,-,N/A,,Clear,200,2012-10-11 03:55:00
11:15 PM,48.2,28.4,46,29.98,10.0,SSW,6.9,-,N/A,,Clear,200,2012-10-11 04:15:00
11:35 PM,51.3,28.8,42,29.98,10.0,SSW,11.5,-,N/A,,Clear,210,2012-10-11 04:35:00
11:55 PM,52.2,28.6,40,29.98,10.0,SW,10.4,-,N/A,,Clear,220,2012-10-11 04:55:00